Temperature
15 15 15 15 15 14 14 14 14 14 13 13 13 13 13 13 13 12 12 12 12 12 12 12 12 11 11 11 11 11 11 11 11 11 11 11 11 11 11 10 10 10 10
14 14 14 14 14 14 14 14 13 13 13 13 13 13 13 13 12 12 12 12 12 12 12 12 11 11 11 11 11 11 11 10 10 10 10 10 10 10 10 10 10 10 10
14 14 14 14 14 14 13 13 13 13 13 13 13 13 13 12 12 12 12 12 12 12 12 11 11 11 11 11 11 11 10 10 10 10 10 10 10 10 10 10 10 10 10
14 14 14 13 13 13 13 13 13 13 13 13 12 12 12 12 12 12 12 12 12 12 11 11 11 11 11 11 11 10 10 10 10 10 10 10 10 10 9 10 10 10 10
13 13 13 13 13 13 13 13 13 12 12 12 12 12 12 12 12 12 12 11 11 11 11 11 11 11 11 10 10 10 10 10 10 10 10 9 9 9 9 9 9 9 9
13 13 13 13 12 12 12 12 12 12 12 12 12 12 11 11 11 11 11 11 11 11 11 11 10 10 10 10 10 10 10 10 9 9 9 9 9 9 9 9 9 9 9
12 12 12 12 12 12 11 12 12 12 12 12 11 11 11 11 11 11 11 11 11 10 10 10 10 10 10 10 10 10 10 9 9 9 9 9 9 9 9 8 9 8 9
12 11 11 11 11 11 11 11 11 11 11 11 11 11 11 11 11 11 10 10 10 10 10 10 10 10 10 10 10 9 9 9 9 9 9 9 9 8 8 8 8 8 8
11 11 11 11 11 11 11 11 10 10 10 10 11 11 10 10 10 10 10 10 10 10 10 10 10 10 9 9 9 9 9 9 9 8 8 8 8 8 8 8 8 8 7
11 11 11 11 10 10 10 10 10 10 10 10 10 10 10 10 10 10 9 9 9 9 9 9 9 9 9 9 9 9 9 8 8 8 8 8 8 8 8 7 7 7 7
11 10 10 10 10 10 10 10 10 9 9 9 10 10 10 9 9 9 9 9 9 9 9 9 9 9 8 8 8 8 8 8 8 7 7 7 7 7 7 7 7 7 7
10 10 10 10 10 9 9 9 9 9 9 9 9 9 9 9 9 9 8 8 8 8 8 8 8 8 8 8 8 7 7 7 7 7 7 7 7 7 7 7 7 6 6
9 9 9 9 9 9 9 9 9 9 8 8 8 8 8 8 8 8 8 8 8 8 8 7 7 7 7 7 7 7 7 7 7 6 6 6 6 6 6 6 6 6 6
9 9 9 9 9 9 9 9 8 8 8 8 8 8 8 8 8 8 8 8 7 7 7 7 7 7 7 7 7 6 6 6 6 6 6 6 6 6 6 6 6 6 6
8 8 8 8 8 8 8 8 8 8 8 8 8 8 7 8 8 7 7 7 7 7 7 6 6 6 6 6 6 6 6 6 6 6 5 5 5 5 5 5 5 5 5
8 8 8 8 8 8 8 8 8 7 7 7 7 7 7 7 7 7 7 7 6 6 6 6 6 6 6 5 5 5 5 5 5 5 5 5 5 5 5 5 4 4 4
8 7 7 7 7 7 7 7 7 7 7 7 7 7 7 7 6 6 6 6 6 6 6 5 5 5 5 5 5 5 5 5 4 4 4 4 4 4 4 4 4 4 4
7 7 7 7 7 7 7 7 7 7 7 7 7 6 6 6 6 6 6 6 5 5 5 5 5 5 5 4 4 4 4 4 4 4 4 4 4 4 4 3 3 3 3
7 7 7 7 7 6 6 6 6 6 6 6 6 6 6 5 5 5 5 5 5 5 4 4 4 4 4 4 4 4 4 4 4 3 3 3 3 3 3 3 3 3 2
6 6 6 6 6 6 6 6 6 6 6 6 6 6 5 5 5 5 4 4 4 4 4 4 4 4 4 3 3 3 3 3 3 3 3 3 2 2 2 2 2 2 2
6 6 6 6 6 6 5 5 5 5 5 5 5 5 5 4 4 4 4 4 4 3 3 3 3 3 3 3 3 3 3 3 2 2 2 2 2 2 2 2 2 2 1
6 5 5 5 5 5 5 5 5 5 4 4 4 4 4 4 4 3 3 3 3 3 3 3 2 2 2 2 2 2 2 2 2 2 2 2 2 1 1 1 1 1 1
5 5 5 5 5 5 5 5 4 4 4 4 4 4 3 3 3 3 3 3 2 2 2 2 2 2 2 1 1 1 1 1 1 1 1 1 1 1 1 0 0 0 0
5 5 4 4 4 4 4 4 4 4 3 3 3 3 3 3 2 2 2 2 2 2 2 2 1 1 1 1 1 0 0 0 0 0 0 0 0 -0 -0 -0 -0 -0 -0
4 4 4 4 4 4 4 4 3 3 3 3 3 2 2 2 2 2 2 1 1 1 1 1 1 1 0 0 0 -0 -0 -0 -0 -0 -0 -0 -0 -1 -1 -1 -1 -1 -1
4 4 4 4 3 3 3 3 3 3 3 2 2 2 2 2 1 1 1 1 1 1 1 1 0 0 -0 -0 -0 -1 -1 -0 -0 -1 -1 -1 -1 -1 -1 -1 -1 -1 -1
Wind_Speed
3 3 3 3 4 4 4 5 5 4 4 5 5 4 4 4 3 3 4 3 3 3 2 3 3 2 2 2 2 2 2 2 3 3 2 2 2 2 1 1 1 1 2
3 3 3 3 3 3 3 4 4 4 4 5 5 5 5 4 4 5 5 4 4 4 4 3 3 2 2 2 2 2 2 3 3 3 2 2 2 2 1 1 1 1 1
2 3 2 2 3 4 4 3 3 4 4 4 4 5 5 5 5 5 5 4 4 5 5 5 4 4 3 3 3 3 3 2 2 3 3 1 1 1 0 1 1 1 2
2 2 3 3 4 4 4 3 3 4 4 4 4 4 5 5 5 4 4 4 4 4 4 5 5 5 5 5 4 4 3 2 2 2 2 1 1 1 0 1 1 1 2
2 3 4 4 3 3 3 4 4 4 4 4 4 3 3 4 4 4 4 4 4 3 3 4 5 5 6 5 4 4 4 3 2 2 2 1 2 1 2 2 2 1 2
3 3 3 3 2 3 3 3 3 3 3 3 3 3 4 4 5 6 5 4 4 4 4 4 4 5 6 7 7 6 6 5 5 4 3 3 4 4 2 2 2 1 2
4 3 2 2 3 3 3 3 3 4 3 3 4 4 4 5 6 6 6 4 4 4 4 4 4 4 5 4 5 5 6 7 7 6 5 6 5 5 4 3 3 3 4
3 3 3 3 3 2 3 4 4 3 4 4 4 4 4 5 5 5 5 4 4 4 5 5 5 4 4 4 4 3 4 5 6 6 6 6 5 5 6 5 4 2 1
3 4 4 3 3 3 3 4 3 3 3 3 3 3 3 4 4 5 4 3 3 4 4 4 4 5 5 4 3 4 4 4 5 5 6 5 4 4 4 3 2 2 2
5 5 4 4 4 4 4 4 3 3 4 3 3 3 4 4 4 4 4 3 3 3 3 3 5 5 4 4 4 4 5 5 3 2 3 3 3 3 6 5 5 3 2
4 3 3 3 4 3 3 3 3 3 3 3 3 3 3 3 3 3 3 3 4 3 3 3 3 5 5 4 4 4 5 4 2 3 2 2 1 2 3 4 4 4 4
1 2 2 2 2 2 2 3 3 3 3 3 2 2 2 3 3 3 3 3 3 3 4 3 3 4 4 3 3 4 4 2 1 1 1 2 2 2 2 3 4 5 5
1 1 2 2 2 2 3 3 3 3 3 3 3 3 3 2 3 3 4 4 3 2 3 3 3 3 3 3 3 3 2 1 2 2 3 3 3 3 2 1 1 2 2
1 2 1 1 1 2 2 3 3 3 3 3 4 4 3 2 2 2 2 2 2 2 2 2 2 2 1 1 1 2 2 2 2 3 3 2 2 1 1 1 1 1 1
2 2 1 1 2 1 1 2 3 4 5 5 5 5 4 4 4 3 2 2 2 3 1 0 0 0 0 1 1 0 1 1 2 2 2 2 1 1 1 1 1 1 2
1 1 1 1 1 1 1 1 2 2 3 4 3 3 4 4 3 2 2 2 1 2 2 1 1 1 2 2 2 1 1 2 2 2 2 2 2 2 2 1 1 1 2
1 2 1 2 2 2 1 1 1 2 1 1 1 1 2 2 2 1 1 0 1 3 2 1 2 2 2 2 2 2 2 2 2 2 2 2 2 2 2 1 1 1 1
1 2 1 2 2 2 2 2 2 2 1 1 1 1 0 0 1 1 2 3 2 1 0 1 2 2 2 2 3 2 2 2 1 2 2 2 2 2 2 2 2 2 2
1 1 1 1 1 1 1 1 2 2 2 1 0 1 1 1 2 3 3 2 1 1 1 1 2 2 2 2 2 2 2 2 2 1 2 2 2 2 2 2 2 3 2
1 2 1 1 1 1 1 1 1 1 1 2 1 1 0 1 1 1 1 1 1 1 1 1 1 2 2 1 1 1 1 1 1 1 2 2 2 2 2 3 2 2 2
1 2 2 0 1 1 1 2 1 1 2 2 2 1 2 2 2 2 1 0 1 1 1 1 1 1 1 1 1 1 1 1 1 1 1 2 2 2 2 2 2 2 2
2 1 1 2 1 1 1 1 1 1 2 2 1 1 1 1 1 1 1 0 0 0 1 1 0 0 0 0 0 1 1 1 1 1 1 1 1 1 1 1 1 2 2
2 2 2 1 1 1 1 1 1 2 2 2 1 1 1 1 1 1 0 0 0 0 0 0 0 1 1 1 1 1 1 1 1 1 1 1 1 1 1 1 2 2 2
2 3 3 2 2 2 2 1 1 1 2 2 2 2 1 1 1 1 0 0 1 1 1 1 1 1 2 2 2 2 2 2 2 1 1 1 1 1 1 1 1 2 2
2 3 3 3 3 2 2 2 2 2 2 2 2 2 2 1 1 1 1 1 1 1 1 1 1 1 1 2 2 2 3 3 2 1 1 0 0 1 1 1 1 1 1
2 3 3 2 3 3 3 2 2 2 2 2 2 2 2 2 1 1 1 1 1 0 1 1 1 1 1 2 2 2 3 3 3 2 1 0 0 0 1 1 2 1 1
Wind_Direction
172 183 191 198 199 192 200 208 205 203 194 192 199 198 199 200 196 193 208 203 205 219 217 208 224 207 192 196 184 182 190 177 227 273 259 270 254 262 295 268 275 267 244
184 180 193 199 185 185 202 208 198 200 199 196 194 196 203 205 200 200 214 213 209 219 222 213 227 208 204 203 193 200 203 194 202 249 264 259 250 250 251 252 287 273 250
176 179 188 189 188 202 212 206 198 202 201 192 189 200 211 212 209 209 210 213 216 222 217 214 220 202 218 217 208 212 213 212 200 213 246 247 262 294 307 275 277 292 274
189 189 204 213 210 209 208 199 198 199 200 200 201 206 212 212 210 208 204 211 221 231 225 220 219 210 217 216 216 216 205 192 184 198 228 240 249 270 146 243 276 268 267
201 208 221 224 219 209 202 202 200 198 204 204 203 211 217 214 213 203 205 207 214 232 240 233 228 225 225 217 220 207 192 188 184 197 214 225 227 220 226 221 244 273 277
205 225 231 222 220 215 213 205 199 203 205 197 204 212 224 236 236 213 202 205 213 221 238 248 243 234 238 236 233 213 191 189 197 202 216 225 230 220 208 212 208 228 268
216 229 229 217 218 223 218 201 204 210 205 204 212 214 233 247 243 222 211 199 211 222 230 238 242 248 243 240 244 232 218 213 201 196 208 224 222 214 194 207 214 225 235
221 230 227 218 220 219 208 210 214 209 206 209 215 221 236 254 243 221 211 204 213 223 225 227 231 246 247 229 224 227 232 232 225 217 222 229 226 206 197 206 210 220 265
225 229 228 218 219 220 220 217 207 200 209 213 213 215 226 257 260 235 207 205 218 235 239 233 230 239 246 226 211 225 243 257 250 237 234 236 228 202 175 146 148 159 247
238 233 226 214 212 219 226 215 204 201 210 211 219 222 224 241 261 249 217 202 219 236 248 245 236 237 245 219 209 220 235 250 250 251 249 250 234 208 189 185 184 186 213
252 242 234 220 213 213 217 208 196 195 197 206 220 237 236 241 253 247 226 204 216 224 235 242 243 244 243 228 214 222 239 240 222 222 233 240 242 222 215 217 207 195 204
272 247 240 229 219 214 200 206 197 190 192 209 223 256 259 256 256 251 246 239 231 217 234 240 241 237 237 239 232 244 249 226 198 202 224 241 245 251 242 237 234 232 235
273 257 255 245 223 201 199 199 198 194 196 214 222 236 262 267 268 265 255 251 249 234 238 235 237 234 235 240 245 247 232 205 196 211 229 238 240 241 236 255 271 255 273
231 245 240 221 224 227 217 201 196 204 210 216 224 234 248 261 264 261 254 255 252 259 259 245 233 229 220 236 270 259 232 215 208 223 232 243 241 234 232 240 242 246 280
259 251 247 235 214 227 243 229 217 218 213 212 219 215 217 239 247 247 233 233 229 225 204 162 98 74 277 270 293 294 251 247 239 234 229 240 241 232 257 256 242 225 225
270 267 250 238 225 217 233 311 309 247 240 236 229 217 227 242 251 252 257 253 241 171 137 170 202 215 231 232 231 247 250 245 247 249 241 233 233 236 252 279 243 217 229
235 247 252 237 218 210 207 200 280 336 359 311 271 246 230 233 230 223 233 136 115 124 126 196 224 233 246 243 236 233 243 253 242 242 243 240 238 238 243 233 217 224 246
250 259 259 245 229 219 217 212 206 202 233 313 323 310 177 148 144 129 110 98 86 81 181 230 253 255 253 252 245 245 249 257 256 249 254 246 236 236 238 231 227 225 236
236 240 247 249 238 221 220 218 216 212 199 203 289 345 26 86 94 93 103 117 164 226 263 266 271 275 275 270 261 250 242 245 253 249 249 257 249 240 238 235 235 231 235
245 253 247 228 222 215 203 202 208 207 200 196 204 214 168 96 110 102 83 124 173 223 245 253 272 282 286 275 271 265 248 247 249 247 252 257 260 246 236 226 228 230 239
234 253 250 258 217 208 200 202 196 197 206 205 212 204 164 162 175 178 184 212 226 242 264 273 276 287 297 307 292 293 303 290 275 268 268 269 260 263 263 237 223 218 221
207 218 223 212 211 209 207 198 181 189 199 197 183 154 136 131 161 178 192 250 300 284 260 243 275 305 314 292 322 338 328 321 320 323 314 302 292 266 253 249 231 215 214
202 207 216 213 194 194 181 177 178 181 183 177 164 147 145 142 151 168 166 86 49 54 25 81 87 26 14 353 339 326 289 285 279 272 287 304 319 311 272 241 239 243 233
205 204 204 200 189 183 186 188 186 178 172 169 161 151 148 144 145 144 129 71 57 47 25 40 66 52 25 3 358 348 324 313 306 284 265 260 281 303 302 282 258 245 242
197 199 198 192 189 190 185 182 183 172 167 171 165 158 153 150 153 155 142 113 93 76 44 22 23 29 27 8 357 350 352 355 348 336 302 297 290 307 314 306 286 282 280
197 200 193 185 182 183 181 181 179 175 174 175 170 167 162 163 167 166 146 126 110 87 44 23 33 22 5 353 345 348 353 354 351 344 345 287 186 255 300 301 299 302 295
Height
1502 1504 1505 1506 1508 1509 1510 1512 1513 1514 1515 1516 1517 1518 1518 1519 1519 1519 1519 1520 1520 1519 1519 1519 1519 1519 1519 1519 1519 1519 1519 1519 1518 1517 1517 1517 1517 1517 1517 1517 1517 1517 1517
1500 1501 1502 1504 1505 1505 1507 1508 1509 1511 1512 1513 1514 1514 1515 1516 1516 1516 1516 1516 1516 1516 1516 1516 1516 1516 1516 1516 1516 1516 1516 1515 1515 1514 1514 1514 1514 1514 1514 1514 1515 1515 1515
1498 1499 1500 1500 1501 1502 1503 1505 1506 1507 1508 1509 1510 1511 1511 1512 1512 1513 1513 1513 1513 1513 1513 1513 1513 1513 1512 1512 1512 1512 1512 1512 1512 1511 1511 1511 1511 1511 1511 1511 1511 1512 1512
1496 1496 1497 1497 1498 1499 1500 1501 1502 1504 1505 1506 1506 1507 1508 1508 1509 1509 1509 1509 1509 1509 1509 1510 1510 1509 1509 1509 1509 1509 1509 1509 1508 1508 1508 1507 1507 1507 1507 1507 1507 1508 1508
1493 1494 1494 1495 1495 1496 1497 1498 1499 1500 1501 1502 1503 1503 1504 1504 1504 1505 1505 1505 1506 1506 1506 1506 1506 1506 1506 1506 1506 1506 1505 1505 1505 1504 1504 1504 1504 1504 1504 1504 1504 1504 1505
1490 1491 1491 1491 1492 1493 1493 1494 1496 1496 1497 1498 1499 1499 1500 1500 1501 1501 1501 1502 1502 1502 1502 1502 1502 1502 1502 1502 1502 1502 1502 1502 1501 1501 1500 1500 1500 1501 1501 1501 1501 1500 1500
1487 1487 1488 1488 1489 1489 1490 1491 1491 1492 1493 1494 1495 1495 1496 1496 1497 1497 1497 1497 1498 1498 1498 1498 1498 1498 1498 1498 1498 1498 1498 1498 1498 1497 1497 1497 1497 1497 1497 1497 1497 1497 1497
1483 1483 1484 1485 1485 1486 1486 1487 1488 1489 1489 1490 1490 1491 1491 1492 1493 1493 1493 1493 1493 1493 1493 1493 1493 1493 1493 1493 1493 1493 1493 1493 1493 1493 1493 1493 1494 1494 1494 1494 1494 1493 1493
1479 1480 1480 1481 1482 1482 1482 1483 1484 1485 1485 1486 1486 1486 1487 1487 1488 1489 1489 1488 1488 1489 1489 1489 1488 1488 1489 1489 1489 1488 1488 1488 1489 1489 1489 1489 1489 1490 1490 1490 1489 1489 1489
1476 1477 1477 1477 1478 1478 1478 1479 1480 1481 1481 1482 1482 1482 1483 1483 1484 1484 1484 1484 1483 1484 1484 1484 1484 1484 1484 1484 1484 1483 1483 1483 1484 1484 1484 1484 1484 1484 1485 1485 1485 1485 1484
1473 1473 1473 1473 1473 1474 1475 1475 1476 1477 1477 1478 1478 1478 1478 1479 1479 1480 1480 1479 1479 1479 1478 1479 1479 1479 1479 1480 1479 1479 1479 1479 1479 1479 1479 1479 1479 1479 1480 1480 1481 1481 1480
1470 1470 1470 1470 1470 1471 1471 1471 1472 1472 1473 1473 1473 1474 1474 1474 1475 1475 1475 1475 1475 1474 1474 1474 1474 1475 1475 1475 1475 1475 1475 1475 1474 1474 1474 1474 1474 1474 1474 1475 1475 1476 1476
1467 1467 1467 1467 1467 1467 1467 1467 1468 1468 1469 1469 1469 1469 1470 1470 1471 1471 1471 1471 1471 1470 1470 1470 1470 1470 1470 1470 1470 1470 1470 1470 1469 1469 1469 1469 1470 1470 1470 1470 1470 1471 1471
1464 1463 1463 1463 1463 1463 1463 1463 1464 1464 1464 1465 1465 1465 1466 1466 1466 1467 1467 1467 1467 1466 1466 1466 1466 1466 1466 1466 1466 1466 1465 1465 1465 1465 1465 1465 1466 1466 1465 1465 1465 1465 1465
1461 1460 1460 1459 1459 1459 1460 1460 1460 1460 1461 1461 1461 1462 1462 1462 1462 1463 1463 1462 1462 1462 1462 1462 1462 1462 1461 1461 1461 1461 1461 1461 1461 1461 1461 1461 1461 1461 1461 1461 1460 1460 1460
1457 1457 1456 1456 1456 1456 1456 1456 1456 1457 1458 1458 1458 1458 1458 1459 1459 1459 1459 1459 1459 1459 1459 1458 1457 1457 1457 1457 1457 1457 1457 1457 1457 1457 1456 1457 1457 1456 1456 1456 1456 1455 1455
1455 1454 1454 1453 1453 1453 1453 1453 1453 1454 1454 1454 1455 1455 1455 1455 1455 1455 1455 1455 1455 1455 1455 1454 1454 1454 1454 1453 1453 1453 1453 1453 1453 1453 1452 1452 1452 1452 1452 1452 1451 1451 1451
1452 1452 1451 1451 1451 1450 1450 1450 1450 1450 1450 1450 1451 1451 1451 1451 1451 1451 1451 1451 1451 1451 1451 1451 1450 1450 1450 1450 1450 1449 1449 1449 1449 1449 1449 1448 1448 1448 1448 1448 1447 1447 1447
1450 1449 1448 1448 1448 1448 1448 1447 1447 1447 1446 1447 1447 1447 1448 1448 1448 1448 1448 1447 1447 1447 1447 1447 1447 1447 1447 1447 1446 1446 1446 1446 1445 1445 1445 1444 1444 1444 1444 1444 1444 1444 1444
1446 1446 1446 1445 1445 1445 1445 1444 1444 1444 1444 1444 1444 1444 1444 1444 1444 1444 1444 1444 1444 1444 1444 1444 1444 1444 1443 1443 1443 1442 1442 1442 1442 1441 1441 1440 1440 1440 1440 1440 1440 1440 1440
1444 1443 1443 1442 1442 1441 1442 1441 1441 1441 1441 1441 1441 1441 1441 1441 1441 1441 1441 1441 1441 1441 1441 1441 1441 1441 1440 1440 1439 1439 1438 1438 1438 1438 1437 1437 1437 1437 1436 1437 1436 1436 1436
1441 1440 1440 1439 1439 1439 1439 1438 1438 1438 1438 1438 1438 1438 1439 1439 1438 1438 1439 1439 1439 1439 1439 1439 1438 1438 1437 1437 1436 1436 1435 1435 1435 1435 1434 1434 1433 1433 1433 1433 1433 1433 1433
1437 1437 1437 1437 1436 1436 1436 1436 1436 1436 1436 1436 1436 1436 1436 1436 1436 1436 1436 1436 1437 1437 1437 1436 1436 1435 1435 1434 1434 1433 1433 1432 1432 1431 1431 1430 1430 1429 1430 1430 1429 1429 1429
1434 1434 1434 1433 1433 1433 1433 1433 1433 1433 1433 1433 1434 1434 1434 1434 1434 1434 1434 1434 1434 1434 1434 1434 1433 1433 1433 1432 1432 1431 1431 1430 1429 1429 1428 1428 1427 1427 1427 1426 1426 1426 1426
1430 1430 1430 1430 1430 1430 1430 1430 1430 1430 1431 1431 1431 1431 1431 1432 1432 1432 1432 1432 1432 1432 1432 1432 1432 1431 1431 1431 1430 1429 1429 1428 1427 1427 1426 1426 1425 1425 1424 1423 1423 1423 1423
1427 1427 1427 1427 1427 1427 1428 1428 1428 1428 1428 1428 1429 1429 1429 1429 1430 1430 1430 1430 1430 1430 1430 1430 1430 1430 1429 1429 1428 1428 1427 1426 1425 1425 1424 1423 1423 1422 1421 1421 1420 1420 1420